Hourly Data Report for August 21, 2021

ALGONQUIN PARK EAST GATE
ONTARIO
Current Station Operator: ECCC - MSC

45°32'00.000" N
78°16'00.000" W
397.00 m
6080192
71581
TNK

Download Data

Hourly Data (August 2021)
Hourly Data Report for August 21, 2021
TIME
LST
Temp Definition
°C
Dew Point Definition
°C
Rel Hum Definition
%
Precip. Amount Definition
mm

Wind Dir Definition
10's deg

Wind Spd Definition
km/h
Visibility Definition
km
Stn Press Definition
kPa
Hmdx Definition


Wind Chill Definition


Weather Definition


00:00 19.1 18.5 97 0.0 0 1   96.83     LegendNANA
01:00 18.2 17.7 97 0.0   0   96.80     LegendNANA
02:00 17.8 17.4 97 0.0   0   96.77     LegendNANA
03:00 17.2 16.7 97 0.0   0   96.78     LegendNANA
04:00 16.9 16.5 98 0.0   0   96.81     LegendNANA
05:00 17.1 16.9 99 0.0   0   96.83     LegendNANA
06:00 16.8 16.5 98 0.0   0   96.84     LegendNANA
07:00 18.3 18.1 98 0.0   0   96.86     LegendNANA
08:00 21.1 19.8 92 0.0   0   96.86 29   LegendNANA
09:00 25.1 20.6 76 0.0 0 1   96.83 33   LegendNANA
10:00 27.7 19.7 62 0.0 18 2   96.84 35   LegendNANA
11:00 28.8 19.6 58 0.0 21 4   96.83 36   LegendNANA
12:00 29.3 17.4 49 0.0 17 4   96.76 35   LegendNANA
13:00 29.0 18.6 53 0.0 14 9   96.74 35   LegendNANA
14:00 29.9 18.2 50 0.0 14 6   96.67 36   LegendNANA
15:00 30.4 18.4 49 0.0 13 9   96.62 37   LegendNANA
16:00 29.8 18.9 52 0.0 12 9   96.58 36   LegendNANA
17:00 28.5 20.3 61 0.0 12 4   96.58 36   LegendNANA
18:00 27.4 21.6 71 0.0 16 2   96.59 36   LegendNANA
19:00 25.1 22.4 85 0.0 10 2   96.59 35   LegendNANA
20:00 23.6 22.0 91 0.0 10 2   96.59 33   LegendNANA
21:00 22.0 20.3 90 0.3 30 2   96.67 30   LegendNANA
22:00 21.0 19.9 93 0.1 21 1   96.70 28   LegendNANA
23:00 20.2 19.6 96 0.0 0 1   96.68 27   LegendNANA

Notes on Data Quality.

Legend

  • E = Estimated
  • M = Missing
  • NA = Not Available*
  • [empty] = Indicates an unobserved value
Date modified: